| time (UTC) | temp C | wind direction | speed KPH | gust KPH | rain 1hr cm | rain 24hr cm | rain mn cm | humidity % | barometer mb |
| 20260502163111 | 21 | 140 | 1.6 | 12.9 | 0.00 | 4.78 | 0.00 | 69 | 1021.0 |
| 20260502161602 | 20 | 295 | 3.2 | 12.9 | 0.00 | 4.78 | 0.00 | 68 | 1021.0 |
| 20260502161501 | 20 | 301 | 3.2 | 12.9 | 0.00 | 4.78 | 0.00 | 68 | 1021.0 |
| 20260502151600 | 18 | 74 | 3.2 | 11.3 | 0.00 | 5.05 | 0.00 | 76 | 1020.7 |
| 20260502150112 | 17 | 25 | 1.6 | 16.1 | 0.00 | 5.05 | 0.00 | 79 | 1020.9 |
| 20260502130111 | 13 | 304 | 1.6 | 6.4 | 0.00 | 5.38 | 0.00 | 93 | 1019.7 |
| 20260502123103 | 12 | 281 | 0.0 | 4.8 | 0.00 | 5.54 | 0.00 | 93 | 1019.0 |
| 20260502121559 | 12 | 276 | 0.0 | 6.4 | 0.00 | 5.54 | 0.00 | 93 | 1018.9 |
| 20260502120104 | 12 | 270 | 1.6 | 6.4 | 0.00 | 5.54 | 0.00 | 93 | 1018.8 |
| 20260502114559 | 12 | 271 | 1.6 | 6.4 | 0.00 | 5.54 | 0.00 | 93 | 1018.5 |
| 20260502111559 | 12 | 268 | 0.0 | 3.2 | 0.00 | 5.54 | 0.00 | 92 | 1018.6 |
| 20260502110059 | 12 | 239 | 0.0 | 6.4 | 0.00 | 5.54 | 0.00 | 92 | 1018.2 |
| 20260502110001 | 12 | 239 | 0.0 | 6.4 | 0.00 | 5.54 | 0.00 | 92 | 1018.2 |
| 20260502104559 | 12 | 258 | 0.0 | 3.2 | 0.00 | 5.59 | 0.00 | 92 | 1017.9 |
| 20260502103058 | 12 | 55 | 0.0 | 3.2 | 0.00 | 5.59 | 0.00 | 92 | 1017.8 |
| 20260502101600 | 12 | 55 | 0.0 | 3.2 | 0.00 | 5.59 | 0.00 | 91 | 1017.7 |
| 20260502070058 | 13 | 68 | 0.0 | 3.2 | 0.00 | 7.14 | 0.00 | 93 | 1016.4 |
| 20260502063120 | 13 | 230 | 0.0 | 11.3 | 0.00 | 7.32 | 0.00 | 93 | 1016.5 |
| 20260502061558 | 13 | 212 | 0.0 | 6.4 | 0.00 | 7.32 | 0.00 | 93 | 1016.2 |
| 20260502060100 | 13 | 142 | 0.0 | 6.4 | 0.00 | 7.32 | 0.00 | 93 | 1016.0 |
| 20260502054607 | 13 | 69 | 1.6 | 8.0 | 0.00 | 7.37 | 0.00 | 94 | 1016.0 |
| 20260502053104 | 13 | 32 | 0.0 | 8.0 | 0.00 | 7.37 | 0.00 | 94 | 1016.1 |
| 20260502050056 | 13 | 69 | 0.0 | 8.0 | 0.00 | 7.37 | 0.00 | 94 | 1015.9 |
| 20260502050004 | 13 | 69 | 0.0 | 8.0 | 0.00 | 7.37 | 0.00 | 94 | 1015.9 |
| 20260502044603 | 13 | 24 | 0.0 | 11.3 | 0.00 | 7.98 | 7.37 | 94 | 1015.6 |
| 20260502043101 | 13 | 124 | 0.0 | 6.4 | 0.00 | 7.98 | 7.37 | 94 | 1015.7 |
| 20260502040104 | 13 | 129 | 1.6 | 4.8 | 0.00 | 7.98 | 7.37 | 95 | 1015.8 |
| 20260502034559 | 13 | 163 | 1.6 | 11.3 | 0.00 | 7.98 | 7.37 | 95 | 1015.8 |
| 20260502031558 | 13 | 170 | 3.2 | 16.1 | 0.03 | 7.98 | 7.37 | 94 | 1015.1 |
| 20260502030059 | 13 | 252 | 3.2 | 14.5 | 0.03 | 7.98 | 7.37 | 95 | 1015.0 |
| 20260502024607 | 13 | 228 | 3.2 | 9.7 | 0.03 | 7.98 | 7.37 | 95 | 1014.5 |
| 20260502023100 | 14 | 119 | 1.6 | 9.7 | 0.08 | 7.98 | 7.37 | 95 | 1013.9 |
| 20260502021559 | 14 | 331 | 1.6 | 11.3 | 0.08 | 7.95 | 7.34 | 95 | 1013.7 |
| 20260502020058 | 15 | 163 | 0.0 | 8.0 | 0.13 | 7.95 | 7.34 | 95 | 1013.5 |
| 20260502020001 | 15 | 146 | 0.0 | 8.0 | 0.13 | 7.95 | 7.34 | 95 | 1013.5 |
| 20260502014558 | 15 | 281 | 3.2 | 14.5 | 0.23 | 7.95 | 7.34 | 95 | 1013.5 |
| 20260502013059 | 15 | 169 | 0.0 | 4.8 | 0.23 | 7.90 | 7.29 | 95 | 1013.4 |
| 20260502011559 | 15 | 264 | 3.2 | 9.7 | 0.23 | 7.87 | 7.26 | 95 | 1013.2 |
| 20260502010057 | 15 | 252 | 1.6 | 12.9 | 0.23 | 7.82 | 7.21 | 95 | 1012.8 |
| 20260502004603 | 15 | 57 | 0.0 | 11.3 | 0.23 | 7.72 | 7.11 | 95 | 1013.1 |
| 20260502003057 | 15 | 87 | 1.6 | 11.3 | 0.36 | 7.67 | 7.06 | 95 | 1012.5 |
| 20260502001558 | 15 | 217 | 0.0 | 11.3 | 0.38 | 7.65 | 7.04 | 95 | 1011.9 |
| 20260501234559 | 15 | 273 | 0.0 | 12.9 | 0.43 | 7.49 | 6.88 | 95 | 1011.8 |
| 20260501233058 | 16 | 277 | 3.2 | 16.1 | 0.28 | 7.32 | 6.71 | 95 | 1012.6 |
| 20260501231637 | 16 | 100 | 0.0 | 14.5 | 0.23 | 7.26 | 6.65 | 95 | 1010.1 |
| 20260501224611 | 16 | 69 | 3.2 | 12.9 | 0.05 | 7.06 | 6.45 | 95 | 1011.0 |
| 20260501223059 | 16 | 65 | 0.0 | 14.5 | 0.03 | 7.04 | 6.40 | 95 | 1010.3 |
| 20260501221611 | 16 | 17 | 1.6 | 11.3 | 0.05 | 7.04 | 6.40 | 95 | 1009.8 |
| 20260501220100 | 17 | 108 | 1.6 | 8.0 | 0.23 | 7.04 | 6.40 | 95 | 1009.8 |
| 20260501220002 | 17 | 52 | 1.6 | 8.0 | 0.25 | 7.04 | 6.40 | 95 | 1009.8 |
| 20260501213110 | 17 | 134 | 0.0 | 11.3 | 0.30 | 7.01 | 6.40 | 95 | 1010.6 |
| 20260501211610 | 17 | 314 | 1.6 | 8.0 | 0.41 | 6.99 | 6.35 | 95 | 1010.7 |
| 20260501210103 | 17 | 119 | 0.0 | 4.8 | 0.46 | 6.78 | 6.17 | 95 | 1010.8 |
| 20260501204600 | 17 | 224 | 0.0 | 6.4 | 0.43 | 6.71 | 6.10 | 95 | 1009.1 |
| 20260501203059 | 17 | 208 | 1.6 | 9.7 | 0.53 | 6.71 | 6.10 | 95 | 1009.5 |
| 20260501201602 | 17 | 89 | 1.6 | 9.7 | 0.64 | 6.58 | 5.97 | 95 | 1009.4 |
| 20260501200058 | 17 | 146 | 0.0 | 4.8 | 0.53 | 6.32 | 5.71 | 95 | 1009.3 |
| 20260501200005 | 17 | 161 | 0.0 | 4.8 | 0.53 | 6.32 | 5.71 | 95 | 1009.3 |
| 20260501194608 | 17 | 279 | 0.0 | 9.7 | 0.86 | 6.27 | 5.66 | 95 | 1008.9 |
| 20260501193058 | 17 | 27 | 0.0 | 4.8 | 0.84 | 6.17 | 5.56 | 95 | 1009.2 |
| 20260501191559 | 17 | 55 | 0.0 | 6.4 | 0.69 | 5.94 | 5.33 | 95 | 1009.0 |
| 20260501190059 | 17 | 70 | 0.0 | 4.8 | 1.24 | 5.77 | 5.18 | 95 | 1009.8 |
| 20260501190002 | 17 | 70 | 0.0 | 4.8 | 1.24 | 5.77 | 5.18 | 95 | 1009.8 |
| 20260501184558 | 17 | 60 | 0.0 | 6.4 | 0.97 | 5.41 | 4.80 | 95 | 1009.9 |
| 20260501183058 | 17 | 56 | 1.6 | 16.1 | 1.50 | 5.33 | 4.72 | 95 | 1009.1 |
| 20260501181603 | 17 | 84 | 3.2 | 11.3 | 1.75 | 5.23 | 4.65 | 95 | 1008.2 |
| 20260501180101 | 17 | 293 | 1.6 | 8.0 | 1.24 | 4.55 | 3.94 | 95 | 1009.8 |
| 20260501174559 | 17 | 101 | 0.0 | 9.7 | 1.17 | 4.45 | 3.84 | 95 | 1009.1 |